,,PA_Meas_PMT16A,,PR_Meas_QMR101_102,,RH_Meas_QMH101,,SR_Meas_QMS101,,TA_Meas_QMH101,,GenWind,,GenWind,
time,status,PA,status,PR,status,RH,status,SR,status,TA,status,DirAvg,status,SpdAvg,
2010-09-21, 00:00:04,VALID,917.188,VALID,0,VALID,97.473,VALID,0,VALID,19.7013,VALID,166,VALID,0.424219,
2010-09-21, 00:01:04,VALID,917.214,VALID,0,VALID,97.4577,VALID,0,VALID,19.6818,VALID,166,VALID,0.361328,
2010-09-21, 00:02:04,VALID,917.194,VALID,0,VALID,97.4654,VALID,0,VALID,19.6623,VALID,166,VALID,0.404687,
2010-09-21, 00:03:04,VALID,917.225,VALID,0,VALID,97.473,VALID,0,VALID,19.6233,VALID,166,VALID,0.446875,
2010-09-21, 00:04:04,VALID,917.229,VALID,0,VALID,97.473,VALID,0,VALID,19.6428,VALID,166,VALID,0.730859,
2010-09-21, 00:05:04,VALID,917.235,VALID,0,VALID,97.473,VALID,0,VALID,19.6638,VALID,166,VALID,0.943359,
2010-09-21, 00:06:04,VALID,917.22,VALID,0,VALID,97.4654,VALID,0,VALID,19.6233,VALID,166,VALID,1.03633,
2010-09-21, 00:07:04,VALID,917.254,VALID,0,VALID,97.473,VALID,0,VALID,19.6233,VALID,166,VALID,0.817969,
2010-09-21, 00:08:04,VALID,917.253,VALID,0,VALID,97.473,VALID,0,VALID,19.6233,VALID,166,VALID,0.521875,
2010-09-21, 00:09:04,VALID,917.247,VALID,0,VALID,97.4806,VALID,0,VALID,19.6428,VALID,166,VALID,0.986328,
2010-09-21, 00:10:04,VALID,917.247,VALID,0,VALID,97.473,VALID,0,VALID,19.6638,VALID,166,VALID,0.916406,
2010-09-21, 00:11:04,VALID,917.224,VALID,0,VALID,97.4882,VALID,0,VALID,19.6428,VALID,166,VALID,0.53125,
2010-09-21, 00:12:04,VALID,917.224,VALID,0,VALID,97.4882,VALID,0,VALID,19.6623,VALID,166,VALID,0.716797,
2010-09-21, 00:13:04,VALID,917.224,VALID,0,VALID,97.4882,VALID,0,VALID,19.6623,VALID,166,VALID,0.272656,
2010-09-21, 00:14:04,VALID,917.227,VALID,0,VALID,97.4806,VALID,0,VALID,19.6833,VALID,166,VALID,0.382422,
2010-09-21, 00:15:04,VALID,917.208,VALID,0,VALID,97.4806,VALID,0,VALID,19.7028,VALID,166,VALID,0.687109,
2010-09-21, 00:16:04,VALID,917.17,VALID,0,VALID,97.4882,VALID,0,VALID,19.6833,VALID,166,VALID,0.84375,
2010-09-21, 00:17:04,VALID,917.163,VALID,0,VALID,97.4959,VALID,0,VALID,19.6233,VALID,166,VALID,0.783984,
2010-09-21, 00:18:04,VALID,917.183,VALID,0,VALID,97.4882,VALID,0,VALID,19.6248,VALID,166,VALID,0.930469,
2010-09-21, 00:19:04,VALID,917.171,VALID,0,VALID,97.4882,VALID,0,VALID,19.5843,VALID,166,VALID,0.71875,
2010-09-21, 00:20:04,VALID,917.188,VALID,0,VALID,97.4959,VALID,0,VALID,19.5648,VALID,166,VALID,1.09375,
2010-09-21, 00:21:04,VALID,917.2,VALID,0,VALID,97.473,VALID,0,VALID,19.5648,VALID,124,VALID,0.968359,
2010-09-21, 00:22:04,VALID,917.192,VALID,0,VALID,97.4882,VALID,0,VALID,19.5648,VALID,123,VALID,1.22539,
2010-09-21, 00:23:04,VALID,917.144,VALID,0,VALID,97.5035,VALID,0,VALID,19.5648,VALID,115,VALID,1.35742,
2010-09-21, 00:24:04,VALID,917.138,VALID,0,VALID,97.5035,VALID,0,VALID,19.5648,VALID,115,VALID,1.04961,
2010-09-21, 00:25:04,VALID,917.155,VALID,0,VALID,97.5035,VALID,0,VALID,19.5843,VALID,115,VALID,0.791016,
2010-09-21, 00:26:04,VALID,917.149,VALID,0,VALID,97.4959,VALID,0,VALID,19.6038,VALID,115,VALID,1.40156,
2010-09-21, 00:27:04,VALID,917.136,VALID,0,VALID,97.4882,VALID,0,VALID,19.6038,VALID,115,VALID,0.684766,
2010-09-21, 00:28:04,VALID,917.116,VALID,0,VALID,97.4882,VALID,0,VALID,19.6248,VALID,126,VALID,1.12539,
2010-09-21, 00:29:04,VALID,917.081,VALID,0,VALID,97.4882,VALID,0,VALID,19.6248,VALID,132,VALID,0.722656,
2010-09-21, 00:30:04,VALID,917.083,VALID,0,VALID,97.4806,VALID,0,VALID,19.6428,VALID,145,VALID,0.674219,
2010-09-21, 00:31:04,VALID,917.042,VALID,0,VALID,97.5035,VALID,0,VALID,19.6623,VALID,108,VALID,1.2875,
2010-09-21, 00:32:04,VALID,917.028,VALID,0,VALID,97.4882,VALID,0,VALID,19.6623,VALID,113,VALID,1.1043,
2010-09-21, 00:33:04,VALID,916.974,VALID,0,VALID,97.4882,VALID,0,VALID,19.6428,VALID,113,VALID,0.727734,
2010-09-21, 00:34:04,VALID,916.981,VALID,0,VALID,97.4806,VALID,0,VALID,19.6428,VALID,113,VALID,1.08125,
2010-09-21, 00:35:04,VALID,916.973,VALID,0,VALID,97.5111,VALID,0,VALID,19.6428,VALID,113,VALID,0.875781,
2010-09-21, 00:36:04,VALID,916.956,VALID,0,VALID,97.4959,VALID,0,VALID,19.6623,VALID,119,VALID,1.43828,
2010-09-21, 00:37:04,VALID,916.923,VALID,0,VALID,97.5035,VALID,0,VALID,19.6818,VALID,130,VALID,0.914844,
2010-09-21, 00:38:04,VALID,916.895,VALID,0,VALID,97.4806,VALID,0,VALID,19.6818,VALID,130,VALID,1.12812,
2010-09-21, 00:39:04,VALID,916.876,VALID,0,VALID,97.5035,VALID,0,VALID,19.6623,VALID,140,VALID,0.809375,
2010-09-21, 00:40:04,VALID,916.886,VALID,0,VALID,97.4882,VALID,0,VALID,19.6623,VALID,140,VALID,0.683984,
2010-09-21, 00:41:04,VALID,916.816,VALID,0,VALID,97.5035,VALID,0,VALID,19.6833,VALID,140,VALID,0.798047,
2010-09-21, 00:42:04,VALID,916.794,VALID,0,VALID,97.5187,VALID,0,VALID,19.7028,VALID,140,VALID,0.547266,
2010-09-21, 00:43:04,VALID,916.767,VALID,0,VALID,97.5035,VALID,0,VALID,19.6818,VALID,140,VALID,0.591016,
2010-09-21, 00:44:04,VALID,916.76,VALID,0,VALID,97.5035,VALID,0,VALID,19.6818,VALID,140,VALID,0.694922,
2010-09-21, 00:45:04,VALID,916.77,VALID,0,VALID,97.5035,VALID,0,VALID,19.6623,VALID,140,VALID,0.979297,
2010-09-21, 00:46:04,VALID,916.749,VALID,0,VALID,97.5111,VALID,0,VALID,19.6623,VALID,140,VALID,0.813281,
2010-09-21, 00:47:04,VALID,916.715,VALID,0,VALID,97.5187,VALID,0,VALID,19.6623,VALID,140,VALID,0.975391,
2010-09-21, 00:48:04,VALID,916.704,VALID,0,VALID,97.5187,VALID,0,VALID,19.6833,VALID,131,VALID,1.09375,
2010-09-21, 00:49:04,VALID,916.685,VALID,0,VALID,97.5035,VALID,0,VALID,19.7028,VALID,98,VALID,0.917578,
2010-09-21, 00:50:04,VALID,916.7,VALID,0,VALID,97.4959,VALID,0,VALID,19.6623,VALID,98,VALID,0.741016,
2010-09-21, 00:51:04,VALID,916.684,VALID,0,VALID,97.5035,VALID,0,VALID,19.6833,VALID,98,VALID,0.9,
2010-09-21, 00:52:04,VALID,916.661,VALID,0,VALID,97.4882,VALID,0,VALID,19.7028,VALID,98,VALID,0.812891,
2010-09-21, 00:53:04,VALID,916.668,VALID,0,VALID,97.5111,VALID,0,VALID,19.6818,VALID,98,VALID,0.83125,
2010-09-21, 00:54:04,VALID,916.626,VALID,0,VALID,97.5035,VALID,0,VALID,19.6818,VALID,98,VALID,0.926953,
2010-09-21, 00:55:04,VALID,916.619,VALID,0,VALID,97.5264,VALID,0,VALID,19.6818,VALID,98,VALID,0.510156,
2010-09-21, 00:56:04,VALID,916.639,VALID,0,VALID,97.5111,VALID,0,VALID,19.7028,VALID,99,VALID,0.723437,
2010-09-21, 00:57:04,VALID,916.594,VALID,0,VALID,97.5035,VALID,0,VALID,19.6833,VALID,99,VALID,0.509375,
2010-09-21, 00:58:04,VALID,916.579,VALID,0,VALID,97.5187,VALID,0,VALID,19.6623,VALID,132,VALID,0.361328,
2010-09-21, 00:59:04,VALID,916.565,VALID,0,VALID,97.5111,VALID,0,VALID,19.6833,VALID,132,VALID,0.921875,
2010-09-21, 01:00:04,VALID,916.533,VALID,0,VALID,97.5187,VALID,0,VALID,19.6818,VALID,132,VALID,0.544141,
2010-09-21, 01:01:04,VALID,916.541,VALID,0,VALID,97.5111,VALID,0,VALID,19.7223,VALID,132,VALID,0,
2010-09-21, 01:02:04,VALID,916.5,VALID,0,VALID,97.5111,VALID,0,VALID,19.7223,VALID,132,VALID,0.280078,
2010-09-21, 01:03:04,VALID,916.47,VALID,0,VALID,97.4959,VALID,0,VALID,19.7223,VALID,132,VALID,0.605859,
2010-09-21, 01:04:04,VALID,916.425,VALID,0,VALID,97.534,VALID,0,VALID,19.7223,VALID,132,VALID,0.460156,
2010-09-21, 01:05:04,VALID,916.409,VALID,0,VALID,97.5035,VALID,0,VALID,19.7013,VALID,132,VALID,0.882813,
2010-09-21, 01:06:04,VALID,916.375,VALID,0,VALID,97.5187,VALID,0,VALID,19.6818,VALID,132,VALID,0.779297,
2010-09-21, 01:07:04,VALID,916.344,VALID,0,VALID,97.5187,VALID,0,VALID,19.7013,VALID,132,VALID,1.00234,
2010-09-21, 01:08:04,VALID,916.362,VALID,0,VALID,97.5035,VALID,0,VALID,19.7208,VALID,132,VALID,0.924609,
2010-09-21, 01:09:04,VALID,916.323,VALID,0,VALID,97.4959,VALID,0,VALID,19.7418,VALID,132,VALID,0.634766,
2010-09-21, 01:10:04,VALID,916.336,VALID,0,VALID,97.5264,VALID,0,VALID,19.7208,VALID,132,VALID,0.579687,
2010-09-21, 01:11:04,VALID,916.328,VALID,0,VALID,97.5111,VALID,0,VALID,19.7013,VALID,132,VALID,0.603125,
2010-09-21, 01:12:04,VALID,916.281,VALID,0,VALID,97.4959,VALID,0,VALID,19.7028,VALID,132,VALID,0.466406,
2010-09-21, 01:13:04,VALID,916.273,VALID,0,VALID,97.4959,VALID,0,VALID,19.6833,VALID,132,VALID,0.309375,
2010-09-21, 01:14:04,VALID,916.239,VALID,0,VALID,97.5035,VALID,0,VALID,19.6638,VALID,132,VALID,0.3,
2010-09-21, 01:15:04,VALID,916.22,VALID,0,VALID,97.5111,VALID,0,VALID,19.6248,VALID,132,VALID,0.61875,
2010-09-21, 01:16:05,VALID,916.213,VALID,0,VALID,97.4959,VALID,0,VALID,19.5858,VALID,132,VALID,0.759375,
2010-09-21, 01:17:05,VALID,916.262,VALID,0,VALID,97.5035,VALID,0,VALID,19.5648,VALID,132,VALID,0.753516,
2010-09-21, 01:18:05,VALID,916.241,VALID,0,VALID,97.5111,VALID,0,VALID,19.5858,VALID,132,VALID,0.501953,
2010-09-21, 01:19:05,VALID,916.254,VALID,0,VALID,97.5264,VALID,0,VALID,19.5858,VALID,132,VALID,0.480469,
2010-09-21, 01:20:05,VALID,916.242,VALID,0,VALID,97.534,VALID,0,VALID,19.5663,VALID,132,VALID,0.634766,
2010-09-21, 01:21:05,VALID,916.248,VALID,0,VALID,97.5111,VALID,0,VALID,19.5273,VALID,132,VALID,0.819141,
2010-09-21, 01:22:05,VALID,916.232,VALID,0,VALID,97.5416,VALID,0,VALID,19.5078,VALID,132,VALID,0.954687,
2010-09-21, 01:23:05,VALID,916.224,VALID,0,VALID,97.5264,VALID,0,VALID,19.4883,VALID,132,VALID,1.00078,
2010-09-21, 01:24:05,VALID,916.197,VALID,0,VALID,97.5416,VALID,0,VALID,19.4673,VALID,131,VALID,0.714063,
2010-09-21, 01:25:05,VALID,916.169,VALID,0,VALID,97.5416,VALID,0,VALID,19.5078,VALID,131,VALID,0.916797,
2010-09-21, 01:26:05,VALID,916.147,VALID,0,VALID,97.5187,VALID,0,VALID,19.5273,VALID,131,VALID,0.594531,
2010-09-21, 01:27:05,VALID,916.159,VALID,0,VALID,97.5492,VALID,0,VALID,19.5273,VALID,131,VALID,0.353125,
2010-09-21, 01:28:05,VALID,916.099,VALID,0,VALID,97.5187,VALID,0,VALID,19.5453,VALID,131,VALID,0.260938,
2010-09-21, 01:29:05,VALID,916.081,VALID,0,VALID,97.534,VALID,0,VALID,19.5273,VALID,131,VALID,0.416797,
2010-09-21, 01:30:05,VALID,916.088,VALID,0,VALID,97.5492,VALID,0,VALID,19.5468,VALID,131,VALID,0.612891,
2010-09-21, 01:31:05,VALID,916.076,VALID,0,VALID,97.534,VALID,0,VALID,19.5273,VALID,131,VALID,0.542969,
2010-09-21, 01:32:05,VALID,916.058,VALID,0,VALID,97.5264,VALID,0,VALID,19.5273,VALID,131,VALID,0.627344,
2010-09-21, 01:33:05,VALID,916.03,VALID,0,VALID,97.5569,VALID,0,VALID,19.5078,VALID,131,VALID,0.500781,
2010-09-21, 01:34:05,VALID,916.027,VALID,0,VALID,97.5569,VALID,0,VALID,19.5273,VALID,131,VALID,0.511328,
2010-09-21, 01:35:05,VALID,916.017,VALID,0,VALID,97.5492,VALID,0,VALID,19.5078,VALID,131,VALID,0.573828,
2010-09-21, 01:36:05,VALID,915.983,VALID,0,VALID,97.5264,VALID,0,VALID,19.4883,VALID,131,VALID,0.689453,
2010-09-21, 01:37:05,VALID,915.983,VALID,0,VALID,97.5492,VALID,0,VALID,19.5078,VALID,131,VALID,0.588672,
2010-09-21, 01:38:05,VALID,915.988,VALID,0,VALID,97.5492,VALID,0,VALID,19.4883,VALID,131,VALID,0.520703,
2010-09-21, 01:39:05,VALID,915.954,VALID,0,VALID,97.5569,VALID,0,VALID,19.5078,VALID,131,VALID,0.199219,
2010-09-21, 01:40:05,VALID,915.925,VALID,0,VALID,97.5569,VALID,0,VALID,19.5063,VALID,131,VALID,0.796094,
2010-09-21, 01:41:05,VALID,915.917,VALID,0,VALID,97.5416,VALID,0,VALID,19.5063,VALID,131,VALID,0.667969,
2010-09-21, 01:42:05,VALID,915.908,VALID,0,VALID,97.5492,VALID,0,VALID,19.5078,VALID,131,VALID,0.576953,
2010-09-21, 01:43:05,VALID,915.888,VALID,0,VALID,97.5492,VALID,0,VALID,19.5078,VALID,131,VALID,0.913281,
2010-09-21, 01:44:05,VALID,915.848,VALID,0,VALID,97.5416,VALID,0,VALID,19.5078,VALID,131,VALID,0.876562,
2010-09-21, 01:45:05,VALID,915.851,VALID,0,VALID,97.5569,VALID,0,VALID,19.5273,VALID,131,VALID,0.725391,
2010-09-21, 01:46:05,VALID,915.839,VALID,0,VALID,97.5569,VALID,0,VALID,19.5273,VALID,131,VALID,0.551953,
2010-09-21, 01:47:05,VALID,915.82,VALID,0,VALID,97.5416,VALID,0,VALID,19.5468,VALID,131,VALID,0.403516,
2010-09-21, 01:48:05,VALID,915.825,VALID,0,VALID,97.5492,VALID,0,VALID,19.5468,VALID,131,VALID,0.315625,
2010-09-21, 01:49:05,VALID,915.815,VALID,0,VALID,97.5721,VALID,0,VALID,19.5663,VALID,131,VALID,0.273438,
2010-09-21, 01:50:05,VALID,915.805,VALID,0,VALID,97.5492,VALID,0,VALID,19.5453,VALID,131,VALID,0.333984,
2010-09-21, 01:51:05,VALID,915.777,VALID,0,VALID,97.5416,VALID,0,VALID,19.5273,VALID,131,VALID,0.950781,
2010-09-21, 01:52:05,VALID,915.787,VALID,0,VALID,97.5492,VALID,0,VALID,19.5078,VALID,131,VALID,0.688281,
2010-09-21, 01:53:05,VALID,915.798,VALID,0,VALID,97.5492,VALID,0,VALID,19.4883,VALID,131,VALID,0.613672,
2010-09-21, 01:54:05,VALID,915.798,VALID,0,VALID,97.5569,VALID,0,VALID,19.4883,VALID,131,VALID,0.680859,
2010-09-21, 01:55:05,VALID,915.758,VALID,0,VALID,97.5645,VALID,0,VALID,19.4688,VALID,130,VALID,0.654688,
2010-09-21, 01:56:05,VALID,915.729,VALID,0,VALID,97.5645,VALID,0,VALID,19.4493,VALID,130,VALID,0.583984,
2010-09-21, 01:57:05,VALID,915.722,VALID,0,VALID,97.5721,VALID,0,VALID,19.4103,VALID,130,VALID,0.654688,
2010-09-21, 01:58:05,VALID,915.687,VALID,0,VALID,97.5645,VALID,0,VALID,19.4088,VALID,130,VALID,0.694922,
2010-09-21, 01:59:05,VALID,915.661,VALID,0,VALID,97.5721,VALID,0,VALID,19.4298,VALID,130,VALID,0.832812,
2010-09-21, 02:00:05,VALID,915.602,VALID,0,VALID,97.5721,VALID,0,VALID,19.4493,VALID,130,VALID,0.669922,
2010-09-21, 02:01:05,VALID,915.584,VALID,0,VALID,97.5569,VALID,0,VALID,19.4298,VALID,130,VALID,0.245703,
2010-09-21, 02:02:05,VALID,915.52,VALID,0,VALID,97.5721,VALID,0,VALID,19.4103,VALID,130,VALID,0.264453,
2010-09-21, 02:03:05,VALID,915.47,VALID,0,VALID,97.5721,VALID,0,VALID,19.4103,VALID,130,VALID,0.00585938,
2010-09-21, 02:04:05,VALID,915.442,VALID,0,VALID,97.5721,VALID,0,VALID,19.3893,VALID,130,VALID,0,
2010-09-21, 02:05:05,VALID,915.451,VALID,0,VALID,97.5797,VALID,0,VALID,19.3698,VALID,130,VALID,0,
2010-09-21, 02:06:05,VALID,915.39,VALID,0,VALID,97.595,VALID,0,VALID,19.3893,VALID,130,VALID,0,
2010-09-21, 02:07:05,VALID,915.385,VALID,0,VALID,97.595,VALID,0,VALID,19.3893,VALID,130,VALID,0.413281,
2010-09-21, 02:08:05,VALID,915.409,VALID,0,VALID,97.5721,VALID,0,VALID,19.4103,VALID,130,VALID,0.399609,
2010-09-21, 02:09:05,VALID,915.392,VALID,0,VALID,97.5797,VALID,0,VALID,19.4103,VALID,130,VALID,0.541797,
2010-09-21, 02:10:05,VALID,915.376,VALID,0,VALID,97.5873,VALID,0,VALID,19.3698,VALID,130,VALID,0.464844,
2010-09-21, 02:11:05,VALID,915.378,VALID,0,VALID,97.5873,VALID,0,VALID,19.4298,VALID,130,VALID,0.601563,
2010-09-21, 02:12:05,VALID,915.358,VALID,0,VALID,97.5797,VALID,0,VALID,19.4283,VALID,130,VALID,0,
2010-09-21, 02:13:05,VALID,915.392,VALID,0,VALID,97.5721,VALID,0,VALID,19.4493,VALID,130,VALID,0,
2010-09-21, 02:14:05,VALID,915.363,VALID,0,VALID,97.5873,VALID,0,VALID,19.4688,VALID,130,VALID,0,
2010-09-21, 02:15:05,VALID,915.365,VALID,0,VALID,97.5797,VALID,0,VALID,19.4283,VALID,130,VALID,0,
2010-09-21, 02:16:05,VALID,915.371,VALID,0,VALID,97.5797,VALID,0,VALID,19.4283,VALID,130,VALID,0,
2010-09-21, 02:17:05,VALID,915.376,VALID,0,VALID,97.6026,VALID,0,VALID,19.4493,VALID,130,VALID,0,
2010-09-21, 02:18:05,VALID,915.367,VALID,0,VALID,97.5797,VALID,0,VALID,19.4283,VALID,130,VALID,0,
2010-09-21, 02:19:05,VALID,915.417,VALID,0,VALID,97.5721,VALID,0,VALID,19.4298,VALID,130,VALID,0.260938,
2010-09-21, 02:20:05,VALID,915.447,VALID,0,VALID,97.5873,VALID,0,VALID,19.4298,VALID,130,VALID,0.505469,
2010-09-21, 02:21:05,VALID,915.442,VALID,0,VALID,97.595,VALID,0,VALID,19.3698,VALID,130,VALID,0.712109,
2010-09-21, 02:22:05,VALID,915.458,VALID,0,VALID,97.6026,VALID,0,VALID,19.3518,VALID,130,VALID,0.904297,
2010-09-21, 02:23:05,VALID,915.489,VALID,0,VALID,97.5873,VALID,0,VALID,19.3323,VALID,130,VALID,0.661328,
2010-09-21, 02:24:05,VALID,915.461,VALID,0,VALID,97.6026,VALID,0,VALID,19.2918,VALID,130,VALID,0.707422,
2010-09-21, 02:25:05,VALID,915.44,VALID,0,VALID,97.595,VALID,0,VALID,19.3128,VALID,130,VALID,0.828516,
2010-09-21, 02:26:05,VALID,915.479,VALID,0,VALID,97.5873,VALID,0,VALID,19.3323,VALID,130,VALID,0.524219,
2010-09-21, 02:27:05,VALID,915.462,VALID,0,VALID,97.5873,VALID,0,VALID,19.3113,VALID,130,VALID,0.444922,
2010-09-21, 02:28:05,VALID,915.456,VALID,0,VALID,97.6026,VALID,0,VALID,19.3113,VALID,130,VALID,0.507031,
2010-09-21, 02:29:05,VALID,915.457,VALID,0,VALID,97.6102,VALID,0,VALID,19.3323,VALID,130,VALID,0.5125,
2010-09-21, 02:30:05,VALID,915.471,VALID,0,VALID,97.595,VALID,0,VALID,19.2933,VALID,130,VALID,0.301953,
2010-09-21, 02:31:05,VALID,915.45,VALID,0,VALID,97.6026,VALID,0,VALID,19.2723,VALID,130,VALID,0.614062,
2010-09-21, 02:32:05,VALID,915.441,VALID,0,VALID,97.6102,VALID,0,VALID,19.2738,VALID,130,VALID,0.801172,
2010-09-21, 02:33:05,VALID,915.415,VALID,0,VALID,97.595,VALID,0,VALID,19.2738,VALID,130,VALID,0.66875,
2010-09-21, 02:34:05,VALID,915.433,VALID,0,VALID,97.6026,VALID,0,VALID,19.2918,VALID,130,VALID,0.704297,
2010-09-21, 02:35:05,VALID,915.424,VALID,0,VALID,97.6102,VALID,0,VALID,19.2933,VALID,130,VALID,0.656641,
2010-09-21, 02:36:05,VALID,915.415,VALID,0,VALID,97.6026,VALID,0,VALID,19.2528,VALID,129,VALID,0.795703,
2010-09-21, 02:37:05,VALID,915.434,VALID,0,VALID,97.6026,VALID,0,VALID,19.2528,VALID,127,VALID,0.691797,
2010-09-21, 02:38:05,VALID,915.434,VALID,0,VALID,97.6178,VALID,0,VALID,19.2543,VALID,126,VALID,0.961719,
2010-09-21, 02:39:05,VALID,915.428,VALID,0,VALID,97.6102,VALID,0,VALID,19.2528,VALID,121,VALID,0.925781,
2010-09-21, 02:40:05,VALID,915.427,VALID,0,VALID,97.6255,VALID,0,VALID,19.2738,VALID,121,VALID,0.773047,
2010-09-21, 02:41:05,VALID,915.414,VALID,0,VALID,97.6102,VALID,0,VALID,19.2738,VALID,118,VALID,0.60625,
2010-09-21, 02:42:05,VALID,915.416,VALID,0,VALID,97.6102,VALID,0,VALID,19.2334,VALID,118,VALID,0.625,
2010-09-21, 02:43:05,VALID,915.414,VALID,0,VALID,97.6178,VALID,0,VALID,19.2543,VALID,118,VALID,1.00391,
2010-09-21, 02:44:05,VALID,915.42,VALID,0,VALID,97.6178,VALID,0,VALID,19.2528,VALID,117,VALID,0.908203,
2010-09-21, 02:45:05,VALID,915.445,VALID,0,VALID,97.6026,VALID,0,VALID,19.2334,VALID,107,VALID,0.627734,
2010-09-21, 02:46:05,VALID,915.419,VALID,0,VALID,97.6255,VALID,0,VALID,19.2543,VALID,107,VALID,0.660937,
2010-09-21, 02:47:05,VALID,915.409,VALID,0,VALID,97.6178,VALID,0,VALID,19.2528,VALID,111,VALID,1.37109,
2010-09-21, 02:48:05,VALID,915.411,VALID,0,VALID,97.6178,VALID,0,VALID,19.2528,VALID,130,VALID,0.827344,
2010-09-21, 02:49:05,VALID,915.426,VALID,0,VALID,97.6026,VALID,0,VALID,19.2528,VALID,130,VALID,0.604297,
2010-09-21, 02:50:05,VALID,915.397,VALID,0,VALID,97.6178,VALID,0,VALID,19.2738,VALID,130,VALID,0.791406,
2010-09-21, 02:51:05,VALID,915.373,VALID,0,VALID,97.6178,VALID,0,VALID,19.2723,VALID,130,VALID,0.634375,
2010-09-21, 02:52:05,VALID,915.389,VALID,0,VALID,97.6178,VALID,0,VALID,19.2738,VALID,130,VALID,0.519141,
2010-09-21, 02:53:05,VALID,915.378,VALID,0,VALID,97.6178,VALID,0,VALID,19.2918,VALID,130,VALID,0.749219,
2010-09-21, 02:54:05,VALID,915.336,VALID,0,VALID,97.6178,VALID,0,VALID,19.2918,VALID,130,VALID,0.455078,
2010-09-21, 02:55:05,VALID,915.365,VALID,0,VALID,97.6102,VALID,0,VALID,19.3113,VALID,130,VALID,0.742188,
2010-09-21, 02:56:05,VALID,915.371,VALID,0,VALID,97.6178,VALID,0,VALID,19.2918,VALID,136,VALID,0.973047,
2010-09-21, 02:57:05,VALID,915.371,VALID,0,VALID,97.6026,VALID,0,VALID,19.3128,VALID,137,VALID,0.375391,
2010-09-21, 02:58:05,VALID,915.356,VALID,0,VALID,97.6178,VALID,0,VALID,19.3128,VALID,138,VALID,0.983594,
2010-09-21, 02:59:05,VALID,915.341,VALID,0,VALID,97.6178,VALID,0,VALID,19.2918,VALID,138,VALID,0.753906,
2010-09-21, 03:00:05,VALID,915.34,VALID,0,VALID,97.6178,VALID,0,VALID,19.2738,VALID,137,VALID,0.585156,
2010-09-21, 03:01:05,VALID,915.349,VALID,0,VALID,97.6331,VALID,0,VALID,19.2738,VALID,138,VALID,0.668359,
2010-09-21, 03:02:05,VALID,915.334,VALID,0,VALID,97.6255,VALID,0,VALID,19.2738,VALID,148,VALID,1.09141,
2010-09-21, 03:03:05,VALID,915.337,VALID,0,VALID,97.6255,VALID,0,VALID,19.2543,VALID,159,VALID,0.584375,
2010-09-21, 03:04:05,VALID,915.32,VALID,0,VALID,97.6255,VALID,0,VALID,19.2738,VALID,134,VALID,0.641797,
2010-09-21, 03:05:05,VALID,915.341,VALID,0,VALID,97.6331,VALID,0,VALID,19.2738,VALID,134,VALID,0.610547,
2010-09-21, 03:06:05,VALID,915.355,VALID,0,VALID,97.6102,VALID,0,VALID,19.2738,VALID,134,VALID,0.490625,
2010-09-21, 03:07:05,VALID,915.33,VALID,0,VALID,97.6026,VALID,0,VALID,19.2738,VALID,151,VALID,0.851953,
2010-09-21, 03:08:05,VALID,915.348,VALID,0,VALID,97.6102,VALID,0,VALID,19.3128,VALID,84,VALID,0.704687,
2010-09-21, 03:09:05,VALID,915.325,VALID,0,VALID,97.6102,VALID,0,VALID,19.3113,VALID,161,VALID,0.982031,
2010-09-21, 03:10:05,VALID,915.34,VALID,0,VALID,97.6178,VALID,0,VALID,19.3518,VALID,119,VALID,0.769922,
2010-09-21, 03:11:05,VALID,915.355,VALID,0,VALID,97.6026,VALID,0,VALID,19.3713,VALID,155,VALID,1.33242,
2010-09-21, 03:12:05,VALID,915.354,VALID,0,VALID,97.595,VALID,0,VALID,19.3698,VALID,160,VALID,1.09336,
2010-09-21, 03:13:05,VALID,915.329,VALID,0,VALID,97.6331,VALID,0,VALID,19.3908,VALID,155,VALID,1.13945,
2010-09-21, 03:14:05,VALID,915.361,VALID,0,VALID,97.6102,VALID,0,VALID,19.3908,VALID,187,VALID,1.05703,
2010-09-21, 03:15:05,VALID,915.334,VALID,0,VALID,97.6026,VALID,0,VALID,19.4088,VALID,155,VALID,1.6582,
2010-09-21, 03:16:05,VALID,915.336,VALID,0,VALID,97.6026,VALID,0,VALID,19.4298,VALID,149,VALID,0.949609,
2010-09-21, 03:17:05,VALID,915.351,VALID,0,VALID,97.595,VALID,0,VALID,19.4298,VALID,174,VALID,0.975781,
2010-09-21, 03:18:05,VALID,915.4,VALID,0,VALID,97.6102,VALID,0,VALID,19.4493,VALID,151,VALID,1.38906,
2010-09-21, 03:19:05,VALID,915.389,VALID,0,VALID,97.6102,VALID,0,VALID,19.4493,VALID,135,VALID,0.919922,
2010-09-21, 03:20:05,VALID,915.418,VALID,0,VALID,97.595,VALID,0,VALID,19.4688,VALID,146,VALID,1.48672,
2010-09-21, 03:21:05,VALID,915.449,VALID,0,VALID,97.6102,VALID,0,VALID,19.4688,VALID,148,VALID,1.6875,
2010-09-21, 03:22:05,VALID,915.441,VALID,0,VALID,97.6026,VALID,0,VALID,19.4688,VALID,115,VALID,1.19844,
2010-09-21, 03:23:05,VALID,915.469,VALID,0,VALID,97.6178,VALID,0,VALID,19.4478,VALID,144,VALID,1.83359,
2010-09-21, 03:24:05,VALID,915.464,VALID,0,VALID,97.6026,VALID,0,VALID,19.4688,VALID,165,VALID,1.33828,
2010-09-21, 03:25:05,VALID,915.454,VALID,0,VALID,97.6102,VALID,0,VALID,19.4688,VALID,164,VALID,0.603516,
2010-09-21, 03:26:05,VALID,915.44,VALID,0,VALID,97.6178,VALID,0,VALID,19.4883,VALID,169,VALID,1.23203,
2010-09-21, 03:27:05,VALID,915.422,VALID,0,VALID,97.5873,VALID,0,VALID,19.4883,VALID,162,VALID,0.684766,
2010-09-21, 03:28:05,VALID,915.427,VALID,0,VALID,97.6026,VALID,0,VALID,19.4883,VALID,129,VALID,0.453125,
2010-09-21, 03:29:05,VALID,915.431,VALID,0,VALID,97.6178,VALID,0,VALID,19.5093,VALID,151,VALID,0.798047,
2010-09-21, 03:30:05,VALID,915.422,VALID,0,VALID,97.6026,VALID,0,VALID,19.4883,VALID,166,VALID,1.02891,
2010-09-21, 03:31:05,VALID,915.42,VALID,0,VALID,97.6102,VALID,0,VALID,19.4883,VALID,166,VALID,0.980859,
2010-09-21, 03:32:05,VALID,915.41,VALID,0,VALID,97.6178,VALID,0,VALID,19.4688,VALID,166,VALID,0.935156,
2010-09-21, 03:33:05,VALID,915.401,VALID,0,VALID,97.6026,VALID,0,VALID,19.4478,VALID,166,VALID,0.580859,
2010-09-21, 03:34:05,VALID,915.415,VALID,0,VALID,97.6178,VALID,0,VALID,19.4883,VALID,166,VALID,1.06797,
2010-09-21, 03:35:05,VALID,915.418,VALID,0,VALID,97.6102,VALID,0,VALID,19.4688,VALID,166,VALID,0.573828,
2010-09-21, 03:36:05,VALID,915.357,VALID,0,VALID,97.6102,VALID,0,VALID,19.4883,VALID,174,VALID,1.42031,
2010-09-21, 03:37:05,VALID,915.361,VALID,0,VALID,97.6026,VALID,0,VALID,19.4883,VALID,167,VALID,0.553516,
2010-09-21, 03:38:05,VALID,915.367,VALID,0,VALID,97.6102,VALID,0,VALID,19.4883,VALID,167,VALID,0.552344,
2010-09-21, 03:39:05,VALID,915.343,VALID,0,VALID,97.6331,VALID,0,VALID,19.4688,VALID,167,VALID,0.644922,
2010-09-21, 03:40:05,VALID,915.353,VALID,0,VALID,97.6026,VALID,0,VALID,19.4883,VALID,167,VALID,0.435547,
2010-09-21, 03:41:05,VALID,915.342,VALID,0,VALID,97.6102,VALID,0,VALID,19.4478,VALID,167,VALID,0.629297,
2010-09-21, 03:42:05,VALID,915.373,VALID,0,VALID,97.6102,VALID,0,VALID,19.4688,VALID,167,VALID,0.568359,
2010-09-21, 03:43:05,VALID,915.391,VALID,0,VALID,97.6026,VALID,0,VALID,19.4688,VALID,167,VALID,0.707812,
2010-09-21, 03:44:05,VALID,915.413,VALID,0,VALID,97.6178,VALID,0,VALID,19.4883,VALID,167,VALID,1.12422,
2010-09-21, 03:45:05,VALID,915.419,VALID,0,VALID,97.6026,VALID,0,VALID,19.4478,VALID,166,VALID,0.878125,